Lamar, CO

6:29 PM MST on November 18, 2019 (GMT -0700)
Lamar Municipal

Weather History for KLAA - September, 2019

Change the Weather History Date:

Monday, September 9, 2019

  Actual Average Record
Temperature  
Mean Temperature 81 °F 69 °F  
Max Temperature 93 °F 85 °F 101 °F (1931)
Min Temperature 68 °F 54 °F 34 °F (1941)
Degree Days  
Heating Degree Days 0 1  
Month to date heating degree days 0 8  
Since 1 July heating degree days 0 13  
Cooling Degree Days 16 5  
Month to date cooling degree days 125 57  
Year to date cooling degree days 1227 1046  
Growing Degree Days 30 (Base 50)    
Moisture  
Dew Point 57 °F    
Average Humidity 46    
Maximum Humidity 73    
Minimum Humidity 19    
Precipitation  
Precipitation 0.00 in 0.05 in 1.24 in (2002)
Month to date precipitation T 0.45  
Year to date precipitation 7.23 12.82  
Sea Level Pressure  
Sea Level Pressure 29.68 in    
Wind  
Wind Speed 13 mph (SSW)    
Max Wind Speed 31 mph    
Max Gust Speed 45 mph    
Visibility 10 miles    
Events      
T = Trace of Precipitation, MM = Missing Value Source: NWS Daily Summary

Daily Weather History Graph

Daily Weather History Graph

Search for Another Location

Airport or City:

Astronomy

Sep. 09, 2019 Rise Set
Actual Time 6:27 AM MDT 7:08 PM MDT
Civil Twilight 6:00 AM MDT 7:34 PM MDT
Nautical Twilight 5:29 AM MDT 8:06 PM MDT
Astronomical Twilight 4:56 AM MDT 8:38 PM MDT
Moon 5:01 PM MDT (9/9) 2:04 AM MDT (9/9)
Length of Visible Light 13h 34m
Length of Day
12h 41m
Waxing Gibbous, 83% of the Moon is Illuminated
Sep 9
Waxing Gibbous
Sep 13
Full
Sep 21
Last Quarter
Sep 28
New
Oct 5
First Quarter

Hourly Weather History & Observations

Time (MDT) Temp. Heat Index Dew Point Humidity Pressure Visibility Wind Dir Wind Speed Gust Speed Precip Events Conditions
12:53 AM 75.0 °F - 57.0 °F 53% 29.67 in 10.0 mi SW 9.2 mph - N/A   Clear
1:53 AM 71.1 °F - 57.0 °F 61% 29.66 in 10.0 mi North 3.5 mph - N/A   Scattered Clouds
2:53 AM 73.0 °F - 55.0 °F 53% 29.63 in 10.0 mi SSW 27.6 mph 38.0 mph N/A   Scattered Clouds
3:53 AM 73.0 °F - 55.9 °F 55% 29.64 in 10.0 mi SSW 27.6 mph 39.1 mph N/A   Clear
4:53 AM 69.1 °F - 57.0 °F 65% 29.71 in 10.0 mi SSW 26.5 mph 35.7 mph N/A   Clear
5:53 AM 69.1 °F - 59.0 °F 70% 29.72 in 10.0 mi SW 18.4 mph - N/A   Clear
6:53 AM 68.0 °F - 59.0 °F 73% 29.72 in 10.0 mi SW 12.7 mph - N/A   Clear
7:53 AM 72.0 °F - 60.1 °F 66% 29.72 in 10.0 mi SW 16.1 mph - N/A   Clear
8:53 AM 75.9 °F - 59.0 °F 56% 29.73 in 10.0 mi West 13.8 mph - N/A   Clear
9:53 AM 79.0 °F - 57.9 °F 48% 29.73 in 10.0 mi West 17.3 mph - N/A   Clear
10:53 AM 82.0 °F 82.4 °F 60.1 °F 47% 29.72 in 10.0 mi WNW 15.0 mph - N/A   Clear
11:53 AM 84.0 °F 83.8 °F 59.0 °F 43% 29.71 in 10.0 mi West 9.2 mph - N/A   Clear
12:53 PM 87.1 °F 86.1 °F 57.9 °F 37% 29.69 in 10.0 mi Variable 4.6 mph - N/A   Clear
1:53 PM 89.1 °F 87.7 °F 57.0 °F 34% 29.67 in 10.0 mi North - - N/A   Clear
2:53 PM 90.0 °F 89.7 °F 60.1 °F 37% 29.65 in 10.0 mi NE 9.2 mph - N/A   Clear
3:53 PM 91.9 °F 89.5 °F 53.1 °F 27% 29.63 in 10.0 mi ENE 8.1 mph - N/A   Clear
4:53 PM 93.0 °F - 44.1 °F 18% 29.63 in 10.0 mi ENE 10.4 mph - N/A   Clear
5:53 PM 89.1 °F 87.1 °F 55.0 °F 31% 29.64 in 10.0 mi East 12.7 mph - N/A   Clear
6:53 PM 84.0 °F 82.9 °F 55.0 °F 37% 29.66 in 10.0 mi SE 10.4 mph - N/A   Clear
7:53 PM 78.1 °F - 55.0 °F 45% 29.67 in 10.0 mi SE 8.1 mph - N/A   Clear
8:53 PM 71.1 °F - 57.9 °F 63% 29.69 in 10.0 mi NE 6.9 mph - N/A   Clear
9:53 PM 72.0 °F - 55.9 °F 57% 29.70 in 10.0 mi East 6.9 mph - N/A   Clear
10:53 PM 73.9 °F - 57.0 °F 55% 29.70 in 10.0 mi South 10.4 mph 17.3 mph N/A   Clear
11:53 PM 75.9 °F - 60.1 °F 58% 29.69 in 10.0 mi SSW 15.0 mph 25.3 mph N/A   Clear